FW1003 Weather Reports


time (UTC)temp
C
wind
direction
speed
KPH
gust
KPH
rain 1hr
cm
rain 24hr
cm
rain mn
cm
humidity
%
barometer
mb
20260508141503 23 295 8.0 20.9 0.00 0.00 0.00 62 1017.1
20260508140002 24 360 9.7 20.9 0.00 0.00 0.00 62 1017.1
20260508134505 24 328 6.4 24.1 0.00 0.00 0.00 63 1017.1
20260508133112 24 333 4.8 24.1 0.00 0.00 0.00 62 1017.0
20260508131602 25 331 6.4 24.1 0.00 0.00 0.00 62 1017.1
20260508130111 25 329 9.7 19.3 0.00 0.00 0.00 62 1017.2
20260508124556 25 30 6.4 20.9 0.00 0.00 0.00 60 1017.4
20260508123103 25 323 3.2 25.7 0.00 0.00 0.00 61 1017.6
20260508121603 25 284 9.7 24.1 0.00 0.00 0.00 60 1017.7
20260508120057 25 306 6.4 22.5 0.00 0.00 0.00 60 1017.8
20260508114652 25 222 8.0 25.7 0.00 0.00 0.00 58 1017.9
20260508113051 25 330 8.0 22.5 0.00 0.00 0.00 59 1018.2
20260508111550 25 307 11.3 22.5 0.00 0.00 0.00 58 1018.4
20260508110052 26 350 8.0 22.5 0.00 0.00 0.00 57 1018.5
20260508104616 25 218 8.0 24.1 0.00 0.00 0.00 58 1018.6
20260508103048 25 351 11.3 24.1 0.00 0.00 0.00 57 1018.6
20260508101550 25 300 8.0 24.1 0.00 0.00 0.00 57 1018.6
20260508100047 25 355 6.4 20.9 0.00 0.00 0.00 58 1018.6
20260508094547 25 298 12.9 22.5 0.00 0.00 0.00 58 1018.8
20260508093044 25 290 4.8 22.5 0.00 0.00 0.00 58 1019.0
20260508091541 25 304 8.0 20.9 0.00 0.00 0.00 59 1019.2
20260508090050 25 315 9.7 30.6 0.00 0.00 0.00 59 1019.3
20260508084537 25 306 9.7 25.7 0.00 0.00 0.00 59 1019.4
20260508083044 25 311 6.4 20.9 0.00 0.00 0.00 59 1019.6
20260508081540 24 302 11.3 20.9 0.00 0.00 0.00 58 1019.9
20260508080030 25 302 3.2 22.5 0.00 0.00 0.00 59 1019.8
20260508074527 24 317 8.0 24.1 0.00 0.00 0.00 59 1019.8
20260508073024 24 335 9.7 24.1 0.00 0.00 0.00 58 1019.6
20260508071522 24 313 4.8 16.1 0.00 0.00 0.00 59 1019.6
20260508070022 25 360 3.2 19.3 0.00 0.00 0.00 58 1019.6
20260508064514 23 304 4.8 19.3 0.00 0.00 0.00 57 1019.8
20260508063009 23 286 8.0 17.7 0.00 0.00 0.00 57 1019.7
20260508061508 23 327 3.2 16.1 0.00 0.00 0.00 59 1019.9
20260508060005 23 316 3.2 9.7 0.00 0.00 0.00 59 1019.9
20260508054559 22 360 4.8 11.3 0.00 0.00 0.00 60 1020.0
20260508053104 22 360 3.2 8.0 0.00 0.00 0.00 62 1020.0
20260508051552 21 306 4.8 14.5 0.00 0.00 0.00 64 1019.8
20260508050046 21 321 8.0 19.3 0.00 0.00 0.00 65 1019.8
20260508044542 20 360 9.7 17.7 0.00 0.00 0.00 66 1019.6
20260508043055 20 360 9.7 16.1 0.00 0.00 0.00 67 1019.8
20260508041535 19 360 8.0 16.1 0.00 0.00 0.00 69 1019.5
20260508040031 18 348 6.4 14.5 0.00 0.00 0.00 71 1019.3
20260508034525 17 360 4.8 12.9 0.00 0.00 0.00 72 1018.9
20260508033020 17 360 4.8 9.7 0.00 0.00 0.00 72 1018.9
20260508031521 16 360 4.8 9.7 0.00 0.00 0.00 73 1018.6
20260508030114 16 360 1.6 6.4 0.00 0.00 0.00 74 1018.5
20260508024512 16 360 3.2 4.8 0.00 0.00 0.00 74 1018.5
20260508023016 16 360 3.2 6.4 0.00 0.00 0.00 74 1018.4
20260508021510 16 360 3.2 6.4 0.00 0.00 0.00 74 1018.1
20260508020012 16 360 4.8 6.4 0.00 0.00 0.00 73 1018.0
20260508014512 17 351 4.8 8.0 0.00 0.00 0.00 74 1018.1
20260508013005 17 360 3.2 8.0 0.00 0.00 0.00 74 1018.3
20260508011506 17 360 3.2 6.4 0.00 0.00 0.00 73 1018.3
20260508010004 17 360 3.2 6.4 0.00 0.00 0.00 73 1018.4
20260508004606 17 325 4.8 9.7 0.00 0.00 0.00 73 1018.6
20260508003101 17 360 4.8 9.7 0.00 0.00 0.00 73 1018.6
20260508001558 17 360 4.8 9.7 0.00 0.00 0.00 73 1018.7
20260508000057 17 360 3.2 6.4 0.00 0.00 0.00 73 1018.9
20260507234556 17 360 1.6 8.0 0.00 0.00 0.00 73 1018.9
20260507233056 17 360 1.6 6.4 0.00 0.00 0.00 72 1019.2
20260507231554 17 311 1.6 8.0 0.00 0.00 0.00 72 1019.1
20260507230059 17 315 1.6 6.4 0.00 0.00 0.00 71 1019.2
20260507224552 17 360 0.0 4.8 0.00 0.00 0.00 70 1019.2
20260507223049 18 318 1.6 6.4 0.00 0.00 0.00 70 1019.5
20260507221546 18 360 3.2 6.4 0.00 0.00 0.00 69 1019.4
20260507220042 18 319 3.2 9.7 0.00 0.00 0.00 69 1019.4
20260507214541 18 360 4.8 14.5 0.00 0.00 0.00 70 1019.3
20260507213041 18 317 3.2 12.9 0.00 0.00 0.00 69 1019.3
20260507211534 18 360 4.8 14.5 0.00 0.00 0.00 69 1019.3
20260507210012 18 360 3.2 12.9 0.00 0.00 0.00 70 1019.1
20260507204512 18 360 3.2 9.7 0.00 0.00 0.00 69 1019.0
20260507203011 18 360 4.8 12.9 0.00 0.00 0.00 70 1018.9
20260507201513 18 360 4.8 9.7 0.00 0.00 0.00 69 1018.8
20260507200008 18 360 4.8 9.7 0.00 0.00 0.00 69 1018.9
20260507194507 18 360 3.2 9.7 0.00 0.00 0.00 69 1018.9
20260507193006 18 321 4.8 9.7 0.00 0.00 0.00 69 1019.0
20260507191506 18 296 4.8 8.0 0.00 0.00 0.00 68 1019.1
20260507190006 18 360 4.8 9.7 0.00 0.00 0.00 68 1019.0
20260507184501 18 360 8.0 17.7 0.00 0.00 0.00 67 1019.1
20260507183105 18 315 4.8 12.9 0.00 0.00 0.00 67 1019.1
20260507181559 19 360 4.8 12.9 0.00 0.00 0.00 67 1019.2
20260507180056 19 319 4.8 9.7 0.00 0.00 0.00 66 1019.0
20260507174555 19 360 3.2 12.9 0.00 0.00 0.00 66 1018.8
20260507173057 19 360 6.4 12.9 0.00 0.00 0.00 66 1018.8
20260507171554 19 360 4.8 12.9 0.00 0.00 0.00 65 1018.7
20260507170055 19 360 4.8 9.7 0.00 0.00 0.00 64 1018.6
20260507164605 20 327 4.8 14.5 0.00 0.00 0.00 63 1018.6
20260507163049 20 338 6.4 16.1 0.00 0.00 0.00 61 1018.6
20260507161549 20 351 11.3 22.5 0.00 0.00 0.00 60 1018.5
20260507160048 20 329 11.3 24.1 0.00 0.00 0.00 59 1018.4
20260507154544 21 309 4.8 19.3 0.00 0.00 0.00 60 1018.4
20260507153045 21 313 9.7 19.3 0.00 0.00 0.00 59 1018.4
20260507151543 21 330 8.0 22.5 0.00 0.00 0.00 59 1018.6
20260507150034 21 350 9.7 22.5 0.00 0.00 0.00 59 1018.7
20260507144532 21 360 11.3 22.5 0.00 0.00 0.00 58 1018.4
20260507143053 21 315 8.0 20.9 0.00 0.00 0.00 58 1018.4